• In Uzbekistan
  • List of Countries
  • For 7 days
  • Water Temperature
  • Satellite Maps
  • Weather Map
  • Weather Widgets
  • user-avatar
    Login

    Hourly Weather Barnowo

    Today, 22 September, Saturday

    Time Temperature Precipitation Wind Pressure Humidity
    00:00 +11°C° 0.3 mm 7 mps 745 mmHg 79%
    01:00 +11°C° 0.3 mm 7 mps 746 mmHg 76%
    02:00 +11°C° 0 mm 7 mps 746 mmHg 76%
    03:00 +10°C° 0 mm 7 mps 746 mmHg 76%
    04:00 +10°C° 0 mm 7 mps 746 mmHg 76%
    05:00 +10°C° 0.1 mm 7 mps 747 mmHg 75%
    06:00 +10°C° 0.1 mm 7 mps 747 mmHg 74%
    07:00 +10°C° 0.1 mm 7 mps 747 mmHg 74%
    08:00 +10°C° 0.2 mm 7 mps 748 mmHg 72%
    09:00 +11°C° 0.2 mm 7 mps 748 mmHg 70%
    10:00 +12°C° 0.2 mm 7 mps 749 mmHg 69%
    11:00 +12°C° 0.3 mm 7 mps 749 mmHg 66%
    12:00 +14°C° 0.3 mm 7 mps 749 mmHg 63%
    13:00 +15°C° 0.3 mm 7 mps 749 mmHg 61%
    14:00 +15°C° 0.2 mm 7 mps 749 mmHg 60%
    15:00 +15°C° 0.2 mm 7 mps 749 mmHg 59%
    16:00 +15°C° 0.2 mm 7 mps 749 mmHg 58%
    17:00 +14°C° 0.2 mm 6 mps 749 mmHg 64%
    18:00 +11°C° 0.2 mm 6 mps 749 mmHg 70%
    19:00 +10°C° 0.2 mm 5 mps 749 mmHg 76%
    20:00 +10°C° 0.2 mm 5 mps 749 mmHg 76%
    21:00 +10°C° 0.2 mm 6 mps 749 mmHg 77%
    22:00 +10°C° 0.2 mm 6 mps 749 mmHg 78%
    23:00 +9°C° 0.1 mm 6 mps 749 mmHg 78%

    Tomorrow, 23 September, Sunday

    Time Temperature Precipitation Wind Pressure Humidity
    00:00 +9°C° 0.1 mm 6 mps 749 mmHg 78%
    01:00 +9°C° 0.1 mm 6 mps 749 mmHg 79%
    02:00 +9°C° 0.1 mm 6 mps 748 mmHg 79%
    03:00 +8°C° 0.1 mm 6 mps 748 mmHg 80%
    04:00 +8°C° 0.1 mm 6 mps 748 mmHg 80%
    05:00 +8°C° 0.1 mm 6 mps 748 mmHg 80%
    06:00 +8°C° 0.1 mm 6 mps 748 mmHg 80%
    07:00 +9°C° 0.1 mm 6 mps 748 mmHg 79%
    08:00 +10°C° 0.2 mm 6 mps 748 mmHg 74%
    09:00 +11°C° 0.2 mm 7 mps 748 mmHg 69%
    10:00 +12°C° 0.2 mm 7 mps 748 mmHg 64%
    11:00 +12°C° 0.2 mm 7 mps 748 mmHg 62%
    12:00 +14°C° 0.2 mm 6 mps 748 mmHg 60%
    13:00 +14°C° 0.2 mm 6 mps 748 mmHg 57%
    14:00 +14°C° 0.1 mm 6 mps 747 mmHg 58%
    15:00 +14°C° 0.1 mm 5 mps 747 mmHg 59%
    16:00 +14°C° 0.1 mm 4 mps 746 mmHg 60%
    17:00 +13°C° 0.1 mm 4 mps 746 mmHg 64%
    18:00 +12°C° 0.1 mm 3 mps 746 mmHg 68%
    19:00 +12°C° 0.1 mm 2 mps 745 mmHg 73%
    20:00 +12°C° 0.1 mm 2 mps 745 mmHg 74%
    21:00 +12°C° 0.1 mm 2 mps 745 mmHg 76%
    22:00 +10°C° 0.1 mm 2 mps 744 mmHg 77%
    23:00 +10°C° 0.4 mm 2 mps 744 mmHg 80%

    Day after tomorrow, 24 September, Monday

    Time Temperature Precipitation Wind Pressure Humidity
    00:00 +10°C° 0.4 mm 3 mps 744 mmHg 82%
    01:00 +10°C° 0.4 mm 3 mps 743 mmHg 84%
    02:00 +10°C° 0.3 mm 4 mps 744 mmHg 83%
    03:00 +10°C° 0.3 mm 4 mps 744 mmHg 82%
    04:00 +9°C° 0.3 mm 5 mps 744 mmHg 81%
    05:00 +9°C° 0.1 mm 5 mps 745 mmHg 78%
    06:00 +9°C° 0.1 mm 5 mps 745 mmHg 76%
    07:00 +9°C° 0.1 mm 6 mps 746 mmHg 74%
    08:00 +10°C° 0.3 mm 6 mps 746 mmHg 70%
    09:00 +10°C° 0.3 mm 7 mps 747 mmHg 66%
    10:00 +11°C° 0.3 mm 8 mps 748 mmHg 62%
    11:00 +11°C° 0.5 mm 8 mps 749 mmHg 62%
    12:00 +11°C° 0.5 mm 8 mps 750 mmHg 61%
    13:00 +10°C° 0.5 mm 8 mps 751 mmHg 60%
    14:00 +10°C° 0.1 mm 8 mps 752 mmHg 57%
    15:00 +10°C° 0.1 mm 7 mps 753 mmHg 54%
    16:00 +10°C° 0.1 mm 7 mps 753 mmHg 51%
    17:00 +9°C° 0.1 mm 6 mps 754 mmHg 53%
    18:00 +9°C° 0.1 mm 5 mps 755 mmHg 56%
    19:00 +8°C° 0.1 mm 4 mps 755 mmHg 59%
    20:00 +7°C° 0.2 mm 4 mps 756 mmHg 61%
    21:00 +7°C° 0.2 mm 5 mps 756 mmHg 63%
    22:00 +7°C° 0.2 mm 5 mps 757 mmHg 66%
    23:00 +7°C° 0.1 mm 5 mps 757 mmHg 65%

    25 September, Tuesday

    Time Temperature Precipitation Wind Pressure Humidity
    00:00 +6°C° 0.1 mm 5 mps 758 mmHg 65%
    01:00 +6°C° 0.1 mm 5 mps 758 mmHg 65%
    02:00 +6°C° 0 mm 5 mps 759 mmHg 64%
    03:00 +6°C° 0 mm 5 mps 759 mmHg 64%
    04:00 +6°C° 0 mm 5 mps 760 mmHg 64%
    05:00 +6°C° 0 mm 5 mps 760 mmHg 63%
    06:00 +7°C° 0 mm 5 mps 761 mmHg 62%
    07:00 +7°C° 0 mm 5 mps 761 mmHg 61%
    08:00 +8°C° 0.1 mm 6 mps 761 mmHg 58%
    09:00 +10°C° 0.1 mm 6 mps 762 mmHg 54%
    10:00 +11°C° 0.1 mm 7 mps 762 mmHg 51%
    11:00 +12°C° 0 mm 7 mps 762 mmHg 50%
    12:00 +12°C° 0 mm 8 mps 762 mmHg 49%
    13:00 +12°C° 0 mm 8 mps 762 mmHg 49%
    14:00 +12°C° 0.1 mm 8 mps 761 mmHg 54%
    15:00 +12°C° 0.1 mm 8 mps 761 mmHg 59%
    16:00 +11°C° 0.1 mm 8 mps 760 mmHg 64%
    17:00 +11°C° 0.3 mm 8 mps 760 mmHg 68%
    18:00 +10°C° 0.3 mm 8 mps 760 mmHg 71%
    19:00 +10°C° 0.3 mm 8 mps 759 mmHg 75%
    20:00 +10°C° 0.2 mm 8 mps 759 mmHg 75%
    21:00 +10°C° 0.2 mm 8 mps 759 mmHg 75%
    22:00 +10°C° 0.2 mm 8 mps 758 mmHg 75%
    23:00 +10°C° 0.5 mm 8 mps 758 mmHg 76%

    26 September, Wednesday

    Time Temperature Precipitation Wind Pressure Humidity
    00:00 +10°C° 0.5 mm 8 mps 758 mmHg 78%
    01:00 +10°C° 0.5 mm 8 mps 758 mmHg 79%
    02:00 +10°C° 0.4 mm 7 mps 759 mmHg 80%
    03:00 +10°C° 0.4 mm 7 mps 759 mmHg 81%
    04:00 +10°C° 0.4 mm 6 mps 759 mmHg 82%
    05:00 +10°C° 0.2 mm 5 mps 759 mmHg 83%
    06:00 +10°C° 0.2 mm 5 mps 759 mmHg 84%
    07:00 +11°C° 0.2 mm 4 mps 760 mmHg 84%
    08:00 +12°C° 0.2 mm 5 mps 760 mmHg 82%
    09:00 +12°C° 0.2 mm 5 mps 760 mmHg 80%
    10:00 +13°C° 0.2 mm 5 mps 760 mmHg 77%
    11:00 +13°C° 0.2 mm 6 mps 760 mmHg 75%
    12:00 +14°C° 0.2 mm 6 mps 760 mmHg 72%
    13:00 +14°C° 0.2 mm 6 mps 760 mmHg 69%
    14:00 +14°C° 0.1 mm 6 mps 760 mmHg 71%
    15:00 +13°C° 0.1 mm 6 mps 759 mmHg 73%
    16:00 +13°C° 0.1 mm 6 mps 759 mmHg 75%
    17:00 +11°C° 0.1 mm 6 mps 759 mmHg 77%
    18:00 +11°C° 0.1 mm 6 mps 759 mmHg 79%
    19:00 +12°C° 0.1 mm 5 mps 759 mmHg 80%
    20:00 +11°C° 0 mm 6 mps 758 mmHg 77%
    21:00 +11°C° 0 mm 6 mps 758 mmHg 74%
    22:00 +11°C° 0 mm 6 mps 758 mmHg 71%
    23:00 +11°C° 0 mm 6 mps 757 mmHg 69%

    27 September, Thursday

    Time Temperature Precipitation Wind Pressure Humidity
    00:00 +10°C° 0 mm 6 mps 757 mmHg 67%
    01:00 +10°C° 0 mm 7 mps 756 mmHg 65%
    02:00 +10°C° 0 mm 7 mps 756 mmHg 65%
    03:00 +10°C° 0 mm 7 mps 755 mmHg 65%
    04:00 +9°C° 0 mm 7 mps 755 mmHg 65%
    05:00 +9°C° 0 mm 7 mps 754 mmHg 64%
    06:00 +9°C° 0 mm 7 mps 754 mmHg 63%
    07:00 +9°C° 0 mm 7 mps 754 mmHg 62%
    08:00 +11°C° 0 mm 7 mps 753 mmHg 58%
    09:00 +12°C° 0 mm 8 mps 753 mmHg 54%
    10:00 +13°C° 0 mm 8 mps 753 mmHg 50%
    11:00 +15°C° 0.1 mm 8 mps 752 mmHg 49%
    12:00 +16°C° 0.1 mm 8 mps 752 mmHg 48%
    13:00 +17°C° 0.1 mm 8 mps 751 mmHg 47%
    14:00 +16°C° 0.1 mm 7 mps 751 mmHg 49%
    15:00 +16°C° 0.1 mm 7 mps 750 mmHg 52%
    16:00 +15°C° 0.1 mm 7 mps 749 mmHg 54%
    17:00 +15°C° 1.2 mm 7 mps 750 mmHg 64%
    18:00 +14°C° 1.2 mm 7 mps 750 mmHg 74%
    19:00 +12°C° 1.2 mm 7 mps 750 mmHg 84%
    20:00 +12°C° 0.3 mm 7 mps 750 mmHg 82%
    21:00 +11°C° 0.3 mm 7 mps 751 mmHg 81%
    22:00 +10°C° 0.3 mm 7 mps 751 mmHg 80%
    23:00 +10°C° 0 mm 7 mps 751 mmHg 79%
    Show more